GFSMW_850_dewp_000.txt.gz
Dewpoint
4 4 5 4 3 4 4 4 8 4 4 5 3 2 1 1 1 2 2 1 0 0 0 0 1 1 0 -0 -0 -2 -2 -1 0 1 2 2 2 4 4 4 2 -0 -1
2 3 4 4 5 6 6 7 6 4 1 1 2 1 1 0 0 1 0 0 1 1 2 -1 -2 -1 -1 -2 -1 0 -0 -2 -3 -1 -0 1 1 1 1 1 2 2 1
1 2 4 5 5 5 4 3 3 2 1 1 1 1 0 -0 -0 -0 0 1 1 1 -1 -2 -2 -2 -2 -3 -8 -5 -3 -1 -1 -1 0 1 1 1 0 1 1 1 2
-1 0 3 4 4 3 3 2 2 1 -1 -2 -2 -1 0 1 2 2 2 0 0 -1 -2 -3 -3 -3 -3 -4 -2 -1 -3 -3 -1 -1 1 1 2 2 2 1 2 2 2
0 1 2 3 4 4 3 2 2 1 0 0 1 2 3 3 0 -1 -1 -1 -2 -2 -3 -4 -4 -4 -5 -5 -2 -1 -2 -1 0 1 1 1 -1 -3 -1 -1 -1 -0 1
1 1 2 3 4 4 3 2 -0 1 0 2 2 2 -1 -2 -1 -1 -1 -2 -2 -4 -5 -4 -5 -4 -2 -2 -2 -1 -0 -0 -0 -1 -1 -1 -2 -2 -1 -1 -4 -2 -4
1 1 1 2 3 2 2 3 3 2 1 0 0 -0 -0 -0 -1 -1 -2 -2 -6 -3 -4 -4 -4 -2 -2 -2 -2 -2 -2 -1 -2 -1 -1 -1 -2 -3 -3 -1 -2 -2 -2
1 1 1 2 2 2 2 3 3 2 1 1 1 0 -0 -1 -1 -2 -2 -5 -3 -4 -4 -3 -3 -3 -3 -3 -3 -4 -3 -3 -3 -2 -2 -2 -4 -4 -5 -4 -4 -5 -5
0 0 1 1 2 2 1 2 2 3 2 2 1 -0 -1 -1 -1 -2 -4 -4 -3 -3 -3 -3 -3 -3 -3 -3 -3 -3 -3 -3 -3 -2 -3 -4 -4 -7 -6 -5 -4 -3 -2
0 1 1 1 1 1 2 2 2 3 3 1 -0 -1 -1 -1 -2 -3 -4 -3 -3 -3 -4 -2 -3 -2 -2 -2 -2 -3 -3 -4 -4 -3 -3 -3 -3 -3 -4 -5 -6 -6 -6
-0 0 1 1 1 2 2 2 2 2 2 1 1 -0 -2 -3 -3 -4 -3 -2 -3 -6 -5 -5 -7 -6 -4 -6 -6 -7 -8 -7 -7 -6 -4 -4 -4 -4 -4 -4 -5 -7 -9
1 1 2 2 1 1 1 2 2 2 2 1 0 -1 -3 -3 -3 -3 -2 -4 -5 -4 -4 -5 -5 -6 -7 -7 -7 -8 -8 -7 -6 -5 -6 -7 -7 -8 -7 -7 -6 -9 -9
1 1 2 2 1 0 0 0 1 1 0 0 0 -1 -3 -4 -4 -4 -5 -5 -6 -7 -7 -9 -11 -11 -12 -11 -11 -11 -9 -8 -8 -11 -11 -9 -9 -9 -9 -11 -10 -10 -9
2 2 2 1 -0 -1 -2 -2 -2 -2 -1 0 -1 -2 -2 -4 -5 -6 -7 -7 -8 -10 -11 -12 -12 -12 -11 -11 -11 -11 -11 -12 -12 -14 -16 -12 -11 -9 -9 -8 -8 -9 -9
2 2 1 0 -1 -3 -3 -4 -5 -4 -2 -1 -1 -3 -3 -4 -6 -6 -7 -8 -11 -12 -13 -13 -12 -12 -11 -11 -11 -11 -10 -10 -11 -12 -14 -15 -12 -11 -11 -9 -8 -9 -10
1 0 -0 -2 -3 -5 -7 -8 -8 -7 -4 -2 -3 -3 -2 -4 -5 -5 -7 -9 -12 -13 -13 -12 -12 -11 -10 -9 -10 -10 -9 -10 -10 -11 -14 -13 -12 -12 -11 -10 -9 -10 -12
-0 -1 -3 -4 -6 -8 -10 -10 -10 -10 -7 -6 -6 -4 -2 -3 -4 -5 -6 -9 -11 -13 -12 -12 -11 -11 -9 -9 -9 -9 -9 -11 -13 -13 -11 -11 -10 -10 -9 -9 -9 -9 -9
-1 -3 -6 -7 -8 -9 -10 -11 -11 -10 -10 -9 -7 -3 -3 -5 -4 -5 -5 -8 -12 -13 -12 -11 -10 -10 -9 -9 -10 -11 -11 -12 -14 -13 -12 -12 -11 -11 -10 -10 -10 -11 -11
-5 -8 -9 -8 -10 -11 -11 -11 -10 -10 -9 -10 -6 -4 -4 -5 -7 -5 -6 -9 -12 -12 -11 -10 -9 -9 -10 -11 -10 -9 -11 -12 -14 -14 -12 -11 -12 -12 -12 -11 -12 -13 -13
-8 -9 -10 -11 -12 -11 -11 -11 -10 -10 -10 -6 -5 -4 -5 -5 -5 -5 -7 -12 -12 -11 -10 -10 -10 -11 -12 -9 -9 -10 -11 -12 -13 -13 -13 -13 -12 -11 -11 -10 -10 -10 -11
-9 -10 -12 -12 -12 -11 -11 -10 -10 -10 -7 -4 -4 -5 -4 -6 -7 -8 -12 -12 -12 -11 -10 -9 -10 -12 -10 -9 -10 -11 -11 -12 -13 -13 -13 -12 -11 -11 -11 -11 -12 -12 -12
-10 -12 -12 -12 -12 -11 -10 -10 -9 -9 -5 -5 -4 -5 -6 -8 -8 -11 -12 -12 -12 -11 -10 -10 -11 -10 -11 -11 -12 -11 -12 -13 -13 -13 -12 -12 -12 -12 -12 -12 -12 -12 -12
-11 -11 -11 -11 -11 -10 -10 -9 -8 -7 -6 -7 -6 -6 -8 -8 -10 -10 -12 -11 -11 -10 -11 -11 -12 -12 -12 -13 -12 -13 -14 -14 -13 -13 -13 -12 -12 -13 -12 -12 -12 -12 -12
-10 -11 -10 -11 -10 -10 -9 -8 -7 -6 -6 -6 -6 -7 -8 -9 -10 -10 -10 -11 -10 -11 -11 -11 -13 -13 -14 -15 -14 -15 -14 -14 -14 -13 -13 -13 -13 -13 -12 -12 -12 -12 -12
-10 -10 -10 -11 -9 -9 -8 -6 -6 -7 -6 -7 -7 -10 -9 -8 -8 -9 -9 -9 -9 -10 -10 -11 -12 -12 -14 -14 -14 -14 -14 -14 -14 -13 -13 -14 -14 -13 -13 -13 -13 -12 -12
-11 -11 -10 -9 -8 -7 -6 -6 -5 -8 -7 -8 -10 -8 -8 -9 -9 -8 -9 -9 -10 -9 -11 -11 -11 -12 -13 -14 -14 -14 -14 -14 -14 -14 -14 -14 -14 -14 -14 -14 -14 -13 -13

GFSMW_850_dewp_003.txt.gz
Dewpoint
4 4 4 4 3 4 7 7 5 4 4 5 5 4 3 1 1 -0 -1 -2 -1 -1 -0 -0 0 -1 -1 -1 -1 -1 -2 -1 -3 -5 -6 -6 -7 -3 -5 0 1 2 3
5 5 5 6 6 6 6 6 5 4 4 4 3 2 1 -1 -3 -3 -1 -0 1 1 1 1 -1 -1 -2 -2 -1 -3 -4 -5 -4 -4 -3 -1 -2 -3 -2 0 2 1 2
3 3 5 4 3 3 4 4 4 3 2 1 -0 -2 -3 -1 -0 0 1 1 -1 -2 -0 -1 -2 -3 -3 -3 -3 -3 -5 -6 -5 -5 -3 -1 -1 -0 -2 -2 0 2 3
3 3 2 2 3 3 3 2 2 0 -1 -2 -1 -1 1 1 2 2 0 -2 -2 -2 -1 -2 -4 -5 -4 -4 -4 -6 -7 -4 -3 -2 -1 2 2 -0 -1 -1 -2 -2 -3
2 2 2 2 2 1 0 -1 -1 0 0 -0 -0 -0 1 -2 -3 -2 -1 -1 -1 -1 -2 -5 -7 -8 -7 -8 -7 -5 -3 -2 -1 -1 -0 1 -1 -1 -1 -2 -4 -7 -9
1 1 2 3 2 1 1 1 2 1 1 -0 -1 -1 -1 -2 -2 -2 -2 -2 -2 -3 -7 -8 -6 -4 -4 -3 -3 -3 -3 -2 -3 -3 -4 -3 -1 -2 -2 -3 -6 -4 -8
1 2 3 2 2 2 2 2 2 2 1 0 -0 -1 -1 -1 -1 -2 -2 -3 -6 -7 -5 -6 -4 -4 -3 -3 -3 -3 -4 -4 -3 -4 -3 -3 -3 -2 -4 -4 -2 -3 -7
1 1 1 1 2 2 2 2 2 1 1 1 0 -0 -1 -1 -2 -1 1 -4 -5 -3 -3 -4 -3 -4 -3 -2 -2 -3 -3 -3 -3 -2 -3 -4 -4 -3 -4 -5 -4 -4 -3
1 1 2 3 2 2 2 2 2 2 2 1 1 -1 -2 -1 2 0 -3 -3 -2 -3 -3 -2 -4 -2 -2 -4 -4 -4 -6 -7 -6 -5 -5 -5 -3 -3 -3 -3 -3 -3 -3
1 2 2 1 1 1 1 2 2 2 2 2 1 1 1 1 0 -2 -3 -2 -2 -2 -6 -10 -8 -8 -8 -7 -8 -9 -10 -11 -10 -8 -7 -6 -5 -4 -4 -3 -3 -3 -4
1 1 1 1 1 1 1 1 0 1 1 1 -0 -2 -1 -2 -3 -3 -3 -3 -3 -5 -10 -8 -7 -8 -10 -11 -12 -11 -11 -10 -9 -8 -6 -7 -7 -7 -7 -7 -6 -6 -5
1 1 2 2 1 1 0 -1 -1 -1 -2 -3 -3 -1 -0 -2 -3 -4 -3 -4 -8 -8 -8 -8 -10 -12 -13 -13 -12 -11 -11 -10 -8 -8 -8 -9 -12 -16 -10 -8 -7 -8 -10
2 2 2 0 0 -0 -1 -2 -3 -5 -6 -6 -2 -0 -0 -0 -1 -2 -4 -6 -7 -7 -9 -11 -13 -14 -13 -12 -12 -12 -11 -11 -11 -11 -12 -12 -14 -16 -16 -11 -9 -9 -8
2 1 0 0 -1 -3 -5 -6 -8 -10 -9 -10 -3 -4 -4 -1 -2 -4 -4 -5 -6 -9 -12 -13 -14 -15 -13 -12 -12 -11 -11 -10 -11 -11 -10 -11 -12 -14 -15 -11 -10 -9 -9
1 0 -1 -2 -4 -7 -8 -9 -10 -11 -12 -12 -10 -6 -3 -2 -3 -2 -4 -4 -6 -12 -14 -13 -15 -13 -12 -12 -11 -10 -10 -10 -10 -10 -13 -15 -16 -12 -11 -10 -10 -10 -9
-0 -1 -2 -4 -7 -7 -8 -10 -11 -12 -11 -12 -11 -9 -7 -4 -2 -2 -2 -6 -9 -12 -12 -14 -14 -12 -11 -10 -10 -9 -9 -9 -12 -12 -14 -16 -12 -10 -9 -9 -9 -8 -8
-2 -4 -4 -8 -8 -10 -11 -11 -11 -12 -13 -12 -11 -6 -4 -4 -5 -5 -3 -7 -7 -10 -12 -14 -12 -11 -10 -10 -8 -9 -11 -11 -11 -12 -15 -15 -13 -13 -12 -11 -10 -10 -10
-5 -6 -8 -9 -11 -12 -12 -12 -12 -12 -12 -11 -9 -7 -6 -6 -5 -5 -4 -6 -8 -11 -13 -12 -11 -11 -9 -10 -12 -11 -10 -10 -10 -13 -14 -14 -12 -12 -11 -13 -13 -12 -13
-7 -8 -9 -12 -12 -12 -12 -12 -12 -11 -10 -9 -8 -7 -6 -5 -4 -4 -5 -7 -11 -13 -12 -12 -12 -10 -10 -12 -11 -10 -10 -11 -12 -13 -14 -14 -13 -13 -12 -12 -12 -12 -12
-8 -9 -10 -12 -12 -12 -11 -11 -10 -9 -9 -9 -8 -7 -7 -5 -4 -7 -7 -10 -12 -12 -11 -11 -10 -10 -12 -11 -10 -10 -11 -12 -12 -13 -14 -14 -12 -11 -11 -12 -12 -12 -13
-8 -9 -11 -11 -11 -11 -11 -9 -9 -8 -8 -8 -8 -8 -7 -6 -7 -7 -10 -12 -12 -12 -11 -11 -10 -11 -13 -12 -11 -12 -11 -12 -13 -13 -13 -13 -13 -13 -12 -12 -12 -12 -12
-9 -10 -10 -10 -10 -10 -9 -9 -9 -8 -8 -8 -7 -7 -7 -7 -9 -9 -10 -11 -11 -11 -11 -11 -11 -12 -14 -14 -17 -15 -14 -14 -13 -13 -13 -13 -12 -12 -13 -12 -12 -12 -12
-10 -10 -10 -10 -10 -10 -9 -9 -8 -8 -7 -7 -8 -7 -7 -8 -8 -10 -10 -10 -11 -10 -10 -11 -11 -13 -13 -15 -15 -15 -15 -14 -14 -13 -13 -13 -13 -13 -13 -13 -13 -13 -12
-10 -11 -11 -11 -10 -9 -8 -7 -7 -6 -7 -8 -9 -9 -8 -10 -8 -8 -10 -10 -9 -9 -10 -10 -11 -12 -13 -14 -14 -14 -14 -14 -14 -14 -14 -14 -13 -13 -13 -13 -13 -13 -13
-11 -11 -11 -10 -12 -10 -7 -6 -6 -6 -7 -7 -9 -12 -13 -10 -9 -8 -8 -8 -9 -10 -10 -10 -10 -11 -12 -13 -13 -13 -14 -13 -13 -14 -14 -14 -15 -14 -14 -14 -14 -13 -13
-13 -12 -14 -14 -10 -6 -6 -6 -6 -4 -5 -6 -10 -11 -11 -10 -6 -6 -7 -8 -9 -10 -10 -10 -10 -11 -12 -13 -13 -13 -13 -13 -14 -14 -14 -14 -15 -15 -15 -15 -14 -14 -14

GFSMW_850_dewp_006.txt.gz
Dewpoint
5 4 4 4 4 8 9 8 7 6 6 6 6 6 4 1 -1 -2 -2 -1 -1 -1 0 1 1 0 -1 -1 -2 -2 -1 -3 -5 -5 -6 -8 -9 -9 -9 -7 -4 -1 1
4 5 6 6 7 8 7 6 5 6 6 5 5 2 0 -2 -2 -1 -1 -1 -0 -0 -3 -0 -0 -1 -2 -3 -3 -3 -3 -4 -6 -7 -9 -5 -8 -9 -4 -4 -4 -2 -1
4 4 4 4 4 5 5 4 3 3 4 2 -1 -2 -2 -1 -0 -0 -1 -1 -3 -3 -2 -1 -2 -3 -5 -7 -6 -6 -6 -7 -8 -8 -3 -1 0 0 -1 -1 -1 -2 -1
2 2 2 2 2 2 0 -0 -1 -1 -1 -1 -2 -2 -2 -1 -1 -2 -3 -3 -2 -1 -1 -2 -3 -7 -8 -9 -10 -10 -8 -8 -6 -3 -1 -1 -3 -0 -1 -1 -2 -3 -4
1 1 1 1 1 1 -0 -1 -1 -2 -1 -0 -2 -1 -1 -1 -1 -1 -2 -1 -1 -2 -3 -5 -6 -12 -12 -10 -6 -5 -4 -3 -3 -4 -2 -3 -3 -3 -4 -4 -4 -5 -6
1 1 1 2 2 1 1 1 1 1 2 1 0 0 -0 -1 -1 -1 -1 -2 -2 -1 -2 -4 -9 -6 -5 -6 -4 -4 -4 -3 -2 -2 -2 -2 -2 -2 -3 -4 -6 -4 -7
1 1 2 2 1 2 2 2 2 2 2 1 1 0 -1 -0 -1 -2 -1 1 -1 -1 -3 -4 -4 -3 -4 -8 -3 -3 -3 -4 -4 -2 -3 -3 -3 -3 -3 -3 -4 -4 -7
2 2 2 2 2 2 2 2 2 2 2 2 1 -0 -1 -2 -1 1 2 1 0 -3 -3 -2 -3 -6 -10 -6 -6 -9 -9 -9 -10 -11 -10 -8 -6 -4 -3 -3 -3 -3 -3
2 2 3 3 2 2 2 2 2 2 2 1 -1 -0 -1 -2 -1 -2 -3 -2 -3 -3 -2 -3 -11 -15 -14 -10 -10 -12 -13 -13 -13 -14 -12 -9 -7 -5 -5 -5 -5 -5 -5
2 2 1 1 1 1 1 0 -1 -1 -1 -2 -3 -4 -4 -3 -3 -2 -3 -3 -3 -2 -2 -8 -14 -13 -12 -11 -12 -13 -14 -12 -12 -12 -11 -11 -9 -9 -11 -12 -9 -6 -5
1 1 1 1 1 0 -1 -2 -2 -4 -7 -7 -7 -8 -6 -3 -1 -2 -2 -2 -2 -1 -4 -10 -9 -13 -14 -13 -13 -13 -13 -12 -12 -10 -8 -8 -9 -10 -11 -13 -16 -10 -6
2 2 1 0 -0 -2 -4 -4 -5 -6 -8 -10 -11 -6 -1 -1 -2 -2 -2 -1 -1 -5 -6 -7 -9 -13 -14 -14 -14 -14 -13 -12 -11 -11 -11 -11 -12 -14 -12 -13 -15 -17 -11
2 1 -1 -3 -3 -4 -4 -6 -7 -7 -9 -11 -11 -12 -12 -11 -6 -2 -2 -3 -6 -6 -3 -10 -12 -14 -15 -15 -13 -12 -11 -11 -10 -10 -10 -10 -11 -13 -14 -14 -14 -16 -15
1 -1 -5 -3 -4 -6 -7 -7 -7 -8 -10 -11 -12 -13 -15 -10 -5 -1 -4 -4 -2 -5 -9 -12 -14 -14 -14 -13 -12 -11 -10 -10 -9 -9 -9 -12 -14 -15 -15 -11 -10 -10 -12
-3 -5 -3 -4 -7 -8 -8 -8 -10 -11 -12 -12 -13 -14 -15 -10 -8 -6 -6 -4 -8 -9 -10 -13 -12 -14 -13 -12 -10 -10 -9 -9 -10 -13 -12 -12 -14 -16 -11 -10 -9 -9 -8
-5 -5 -4 -7 -8 -9 -10 -11 -12 -12 -13 -13 -13 -13 -13 -11 -8 -7 -4 -4 -5 -11 -8 -8 -14 -13 -11 -10 -9 -9 -11 -13 -12 -11 -11 -12 -15 -15 -13 -13 -11 -10 -10
-6 -5 -7 -9 -10 -11 -12 -12 -12 -12 -12 -11 -11 -11 -11 -9 -7 -6 -3 -5 -4 -5 -8 -13 -13 -11 -10 -9 -10 -11 -10 -10 -10 -11 -12 -13 -14 -15 -13 -13 -12 -13 -13
-6 -8 -9 -10 -11 -12 -12 -12 -11 -11 -11 -11 -11 -10 -9 -9 -8 -4 -4 -4 -5 -7 -12 -13 -12 -11 -10 -10 -12 -11 -10 -10 -11 -12 -13 -13 -14 -14 -13 -12 -11 -12 -12
-7 -8 -9 -10 -12 -11 -11 -11 -11 -11 -10 -10 -10 -9 -8 -9 -7 -6 -7 -6 -6 -11 -12 -11 -10 -10 -10 -12 -13 -13 -13 -13 -13 -13 -15 -13 -13 -13 -12 -12 -12 -13 -13
-7 -8 -10 -11 -11 -11 -11 -10 -9 -9 -10 -10 -9 -8 -7 -7 -7 -7 -7 -7 -11 -12 -11 -10 -10 -11 -12 -13 -15 -16 -15 -14 -15 -14 -14 -14 -13 -12 -13 -12 -12 -12 -13
-8 -10 -10 -10 -10 -10 -10 -9 -9 -9 -9 -8 -7 -7 -7 -7 -7 -9 -9 -9 -8 -8 -11 -10 -10 -11 -12 -14 -16 -15 -13 -13 -13 -14 -14 -13 -13 -13 -13 -13 -13 -12 -12
-9 -10 -10 -10 -11 -10 -9 -10 -9 -8 -7 -6 -6 -9 -8 -7 -8 -8 -8 -8 -9 -10 -10 -10 -10 -11 -13 -15 -16 -15 -13 -13 -13 -14 -13 -13 -13 -13 -13 -13 -12 -13 -13
-10 -10 -11 -12 -11 -10 -14 -9 -7 -6 -6 -6 -7 -9 -10 -8 -9 -8 -8 -9 -10 -9 -9 -10 -11 -12 -13 -14 -17 -15 -14 -14 -14 -14 -13 -14 -14 -13 -13 -14 -13 -13 -13
-11 -13 -16 -17 -17 -16 -12 -6 -6 -6 -6 -6 -5 -7 -10 -13 -12 -9 -8 -9 -8 -8 -9 -11 -11 -11 -12 -13 -16 -14 -14 -14 -14 -14 -14 -14 -16 -14 -14 -14 -13 -13 -13
-16 -19 -19 -17 -15 -14 -13 -11 -10 -8 -7 -4 -5 -7 -11 -11 -11 -8 -7 -7 -7 -8 -10 -11 -10 -11 -12 -12 -14 -13 -14 -14 -14 -14 -15 -16 -17 -17 -16 -15 -14 -14 -14
-21 -19 -17 -15 -14 -13 -12 -11 -8 -6 -6 -5 -5 -6 -8 -10 -10 -7 -7 -7 -8 -10 -10 -10 -10 -10 -11 -12 -13 -14 -16 -19 -21 -18 -16 -17 -16 -16 -16 -15 -15 -15 -14

GFSMW_850_dewp_009.txt.gz
Dewpoint
6 5 5 5 4 5 7 8 9 8 7 8 7 6 7 2 0 -1 -1 -1 -0 1 0 -2 -3 -2 -1 -2 -3 -3 -4 -5 -5 -6 -7 -7 -9 -9 -11 -4 -3 -3 -4
7 7 6 5 8 8 8 7 7 8 6 6 6 5 3 -0 -1 -0 1 1 -1 -2 -2 -3 -2 -1 -2 -4 -6 -8 -9 -11 -12 -10 -11 -4 -6 -4 -2 -4 -2 -1 -1
5 6 6 7 7 6 5 3 4 5 5 6 3 -1 -1 -1 -1 -0 -2 -2 -2 -2 -2 -2 -2 -3 -4 -6 -8 -10 -11 -11 -11 -10 -4 -2 -1 -2 -3 -4 -4 -2 -3
4 3 3 3 2 1 0 -1 -1 -1 -1 -1 -1 -1 -1 -1 -1 -1 -1 -2 -1 -1 -1 -3 -2 -2 -6 -9 -10 -12 -14 -9 -7 -6 -4 -4 -3 -1 -2 -4 -6 -6 -7
1 1 1 1 1 0 1 1 1 1 2 2 1 1 0 0 -0 -1 -1 -1 -1 -2 -2 -1 -0 -3 -7 -7 -6 -5 -13 -6 -3 -2 -3 -3 -2 -2 -2 -2 -3 -4 -7
2 2 2 2 1 1 2 2 2 2 2 2 2 1 1 0 -1 -1 -0 -1 0 0 -0 -1 -4 -4 -6 -5 -4 -8 -9 -6 -6 -6 -6 -5 -3 -3 -3 -3 -3 -3 -5
2 2 2 2 2 2 2 2 2 2 2 2 2 2 1 -0 -1 -1 -2 -3 -4 -3 -4 -4 -3 -3 -3 -11 -12 -10 -11 -11 -11 -12 -14 -14 -11 -8 -6 -5 -4 -4 -6
2 2 2 2 2 2 2 2 2 2 2 2 0 -0 -1 -4 -5 -3 -2 -2 -4 -3 -2 -2 -4 -8 -13 -16 -17 -16 -14 -14 -15 -14 -14 -14 -13 -8 -7 -6 -7 -7 -6
3 2 2 2 2 2 1 1 0 -1 -2 -3 -4 -5 -7 -6 -2 -1 -1 -2 -3 -2 -2 -4 -3 -4 -9 -15 -17 -15 -13 -13 -13 -13 -13 -12 -12 -12 -11 -10 -11 -12 -6
3 2 1 1 1 1 -0 -3 -4 -4 -4 -6 -7 -10 -8 -3 -3 -1 -2 -2 -2 -2 -1 -1 -3 -7 -7 -15 -16 -14 -13 -14 -13 -13 -13 -11 -10 -10 -11 -12 -14 -13 -14
1 1 1 1 0 -1 -3 -4 -5 -6 -7 -9 -10 -12 -12 -13 -13 -14 -10 -2 -2 -2 -2 -3 -6 -5 -11 -14 -15 -16 -14 -13 -12 -11 -10 -10 -11 -10 -11 -11 -12 -13 -13
1 1 0 -1 -2 -4 -5 -5 -6 -6 -7 -8 -11 -12 -13 -15 -19 -15 -6 -2 -2 -1 -2 -4 -4 -11 -13 -14 -15 -14 -13 -12 -11 -10 -10 -9 -9 -9 -10 -12 -15 -16 -15
1 -0 -2 -4 -4 -6 -6 -6 -7 -8 -9 -11 -12 -13 -14 -16 -17 -19 -10 -5 -6 -6 -3 -4 -7 -12 -14 -14 -13 -13 -12 -11 -10 -9 -9 -9 -12 -13 -14 -15 -16 -14 -12
0 -3 -4 -4 -5 -5 -7 -8 -8 -10 -12 -13 -13 -12 -14 -14 -13 -13 -10 -6 -5 -3 -6 -7 -11 -14 -12 -14 -13 -11 -10 -9 -9 -10 -12 -12 -12 -12 -14 -15 -13 -10 -9
-2 -4 -3 -5 -6 -7 -8 -9 -11 -12 -12 -12 -11 -13 -12 -12 -11 -11 -11 -7 -3 -3 -5 -8 -12 -8 -13 -13 -11 -10 -9 -10 -12 -11 -10 -10 -11 -12 -14 -12 -12 -13 -11
-4 -6 -5 -5 -7 -8 -10 -11 -12 -12 -11 -11 -11 -11 -11 -11 -10 -10 -7 -6 -3 -3 -8 -7 -8 -12 -13 -11 -10 -10 -11 -12 -10 -10 -11 -11 -13 -14 -14 -14 -11 -11 -11
-5 -6 -6 -8 -9 -10 -11 -12 -12 -11 -11 -10 -10 -10 -10 -9 -9 -10 -8 -4 -4 -4 -5 -7 -10 -12 -11 -11 -10 -11 -12 -12 -12 -13 -12 -12 -13 -14 -13 -13 -13 -13 -12
-6 -7 -8 -9 -10 -11 -12 -12 -11 -10 -10 -9 -10 -10 -8 -8 -8 -8 -6 -6 -6 -6 -6 -11 -12 -11 -11 -10 -12 -13 -15 -17 -16 -14 -15 -14 -13 -12 -12 -12 -11 -12 -13
-6 -7 -8 -9 -11 -11 -11 -10 -10 -9 -9 -10 -10 -8 -7 -7 -7 -7 -7 -7 -7 -8 -12 -11 -10 -10 -10 -11 -13 -16 -17 -16 -15 -15 -14 -13 -13 -13 -12 -12 -12 -12 -13
-7 -8 -9 -11 -11 -10 -10 -10 -9 -9 -11 -11 -8 -6 -7 -8 -8 -7 -8 -9 -10 -10 -9 -7 -9 -10 -11 -12 -15 -17 -16 -15 -15 -14 -14 -14 -14 -13 -13 -13 -13 -13 -13
-7 -9 -10 -10 -10 -11 -11 -10 -10 -14 -9 -7 -6 -6 -7 -9 -8 -7 -7 -8 -7 -7 -8 -10 -10 -10 -11 -13 -16 -17 -16 -14 -13 -14 -14 -14 -13 -13 -13 -13 -13 -12 -12
-9 -9 -10 -10 -14 -15 -14 -17 -15 -10 -7 -6 -6 -6 -6 -9 -9 -8 -9 -9 -9 -10 -10 -9 -9 -11 -12 -13 -15 -17 -16 -13 -14 -14 -14 -13 -14 -13 -13 -13 -13 -13 -13
-10 -10 -12 -19 -20 -19 -17 -15 -14 -12 -11 -9 -8 -6 -5 -8 -11 -13 -9 -8 -9 -9 -8 -9 -10 -11 -12 -12 -14 -16 -16 -19 -15 -14 -14 -14 -15 -17 -16 -14 -14 -14 -13
-11 -16 -21 -21 -20 -18 -16 -14 -13 -12 -10 -8 -6 -5 -5 -9 -12 -12 -10 -8 -8 -7 -8 -9 -10 -11 -11 -12 -13 -16 -16 -20 -24 -18 -15 -15 -18 -18 -17 -15 -14 -14 -14
-19 -21 -20 -19 -17 -16 -14 -12 -12 -11 -8 -7 -6 -5 -5 -7 -10 -11 -7 -7 -7 -8 -9 -10 -10 -10 -11 -11 -13 -14 -16 -18 -25 -25 -23 -22 -21 -20 -19 -17 -15 -15 -14
-20 -19 -18 -17 -16 -15 -15 -13 -10 -9 -7 -6 -7 -6 -5 -7 -7 -8 -8 -8 -8 -9 -9 -9 -9 -10 -10 -11 -13 -14 -15 -16 -21 -27 -25 -23 -21 -22 -21 -21 -18 -16 -15

GFSMW_850_dewp_015.txt.gz
Dewpoint
6 6 6 6 7 7 7 8 8 8 7 8 8 7 6 5 0 -1 -1 -1 -0 0 -2 -1 -2 -2 -2 -2 -2 -2 -2 -2 -5 -9 -7 -11 -16 -11 -16 -17 -7 -11 -16
7 7 7 8 9 9 8 9 7 7 6 7 6 -0 -2 -2 -1 -1 -1 -1 -1 -1 -1 -1 -2 -2 -2 -2 -2 -2 -5 -8 -9 -10 -7 -9 -8 -5 -8 -4 -11 -6 -14
9 10 9 7 5 4 5 5 4 5 5 0 -1 -0 -0 -0 0 0 0 0 -1 -1 -1 -1 -3 -6 -5 -4 -3 -5 -5 -3 -5 -10 -6 -6 -8 -4 -5 -4 -5 -2 -3
9 6 4 3 1 0 -0 -0 -0 0 0 1 1 1 1 1 1 1 0 -1 -1 -1 -3 -5 -7 -9 -4 -5 -4 -4 -5 -8 -8 -13 -6 -11 -5 -6 -8 -7 -6 -5 -6
5 3 2 -0 -1 -1 -0 -0 1 1 2 1 1 1 2 1 1 -0 -2 -2 -1 -2 -4 -8 -11 -8 -3 -3 -3 -6 -6 -10 -13 -11 -14 -8 -7 -7 -5 -9 -9 -8 -8
2 0 -0 -1 0 1 1 1 2 2 2 2 2 2 1 -0 -2 -4 -5 -6 -7 -11 -14 -12 -7 -5 -4 -2 -5 -6 -5 -6 -11 -17 -14 -10 -9 -10 -9 -9 -10 -10 -11
1 1 0 0 1 1 1 2 2 2 2 1 -1 -4 -7 -9 -10 -10 -12 -14 -16 -17 -15 -8 -3 -2 -3 -4 -5 -3 -8 -16 -17 -16 -12 -12 -10 -9 -8 -9 -10 -10 -10
2 2 2 2 2 2 2 2 2 1 -2 -5 -8 -10 -11 -12 -13 -13 -16 -20 -20 -21 -22 -13 -3 -2 -2 -4 -2 -5 -13 -16 -14 -14 -13 -12 -10 -12 -9 -8 -8 -9 -10
2 2 3 2 2 2 2 1 -2 -4 -6 -7 -9 -10 -12 -13 -14 -15 -18 -23 -27 -26 -22 -10 -2 -1 -3 -4 -5 -9 -13 -16 -15 -14 -13 -12 -12 -11 -11 -10 -8 -8 -8
3 3 2 2 1 1 -1 1 -2 -5 -6 -9 -10 -12 -13 -13 -14 -17 -18 -24 -26 -24 -14 -3 -2 -3 -2 -5 -7 -12 -14 -14 -14 -13 -12 -12 -11 -10 -10 -9 -9 -8 -9
3 3 2 0 -0 -1 -1 -2 -3 -3 -3 -8 -11 -12 -12 -11 -11 -13 -19 -22 -21 -19 -9 -3 -4 -4 -4 -5 -4 -11 -14 -13 -13 -12 -12 -11 -10 -10 -8 -8 -9 -11 -11
3 2 0 0 -1 -3 -3 -2 -3 -2 -9 -9 -11 -12 -11 -11 -11 -14 -18 -17 -15 -15 -9 -4 -4 -5 -5 -4 -6 -13 -11 -13 -13 -11 -11 -10 -9 -9 -9 -9 -10 -11 -11
2 0 -0 -1 -3 -5 -5 -3 -3 -8 -9 -11 -12 -11 -11 -10 -11 -15 -15 -12 -12 -12 -9 -6 -5 -5 -4 -5 -12 -11 -12 -13 -12 -11 -10 -10 -10 -9 -9 -10 -10 -10 -11
1 0 -0 -1 -4 -5 -3 -1 -7 -8 -10 -12 -12 -11 -10 -10 -11 -14 -13 -12 -10 -10 -6 -6 -5 -4 -7 -10 -11 -11 -11 -12 -11 -10 -11 -11 -11 -10 -10 -10 -10 -11 -11
0 0 -0 -3 -4 -3 -2 -7 -8 -9 -11 -12 -11 -10 -10 -10 -12 -13 -13 -11 -9 -8 -6 -6 -5 -5 -5 -7 -9 -12 -11 -10 -11 -11 -15 -18 -17 -16 -14 -11 -11 -11 -11
1 1 -2 -4 -0 -4 -8 -8 -9 -10 -12 -12 -10 -10 -9 -9 -13 -10 -11 -12 -10 -8 -6 -6 -5 -5 -6 -6 -10 -11 -10 -11 -11 -17 -18 -17 -16 -12 -13 -14 -13 -12 -12
1 -0 -2 -4 -6 -8 -7 -8 -10 -11 -12 -11 -10 -10 -9 -11 -10 -9 -10 -10 -10 -8 -7 -6 -6 -6 -7 -10 -9 -9 -10 -11 -17 -18 -17 -15 -12 -13 -12 -12 -12 -12 -12
1 -1 -4 -6 -7 -8 -8 -10 -10 -11 -11 -10 -11 -9 -12 -10 -8 -7 -9 -9 -9 -9 -8 -8 -9 -10 -9 -8 -9 -10 -12 -16 -18 -18 -16 -12 -12 -12 -13 -12 -12 -12 -12
1 -2 -5 -7 -7 -8 -9 -10 -11 -10 -12 -15 -17 -17 -11 -10 -7 -6 -7 -9 -8 -8 -8 -8 -7 -7 -7 -10 -9 -11 -14 -18 -18 -19 -15 -13 -13 -13 -13 -12 -12 -12 -12
-0 -3 -6 -7 -7 -9 -11 -11 -11 -18 -22 -20 -18 -16 -14 -11 -9 -8 -6 -8 -9 -9 -8 -8 -8 -8 -10 -9 -10 -13 -15 -18 -18 -22 -20 -15 -14 -13 -13 -13 -13 -13 -12
-2 -4 -2 -7 -10 -10 -10 -16 -22 -21 -19 -18 -16 -15 -14 -13 -11 -8 -6 -9 -12 -10 -9 -9 -8 -9 -8 -9 -11 -13 -14 -17 -18 -24 -28 -17 -17 -15 -16 -17 -14 -14 -13
-1 -1 -8 -9 -9 -13 -19 -22 -20 -19 -18 -17 -16 -15 -14 -11 -8 -6 -6 -11 -12 -10 -9 -9 -9 -8 -9 -10 -12 -12 -14 -17 -17 -22 -29 -26 -21 -23 -23 -20 -19 -16 -15
-4 -8 -9 -2 -13 -20 -21 -20 -18 -17 -17 -16 -16 -14 -11 -9 -7 -6 -6 -10 -11 -9 -9 -8 -7 -8 -9 -10 -11 -12 -13 -17 -17 -18 -27 -27 -26 -26 -27 -24 -21 -18 -16
-9 -7 -2 -14 -20 -20 -19 -18 -16 -15 -15 -15 -14 -11 -9 -8 -7 -6 -6 -8 -11 -9 -8 -9 -9 -9 -10 -10 -10 -12 -13 -15 -16 -17 -23 -27 -26 -28 -28 -27 -24 -21 -17
-3 -2 -17 -20 -19 -18 -17 -15 -15 -15 -15 -12 -10 -8 -6 -7 -7 -6 -6 -8 -8 -8 -9 -11 -10 -10 -10 -10 -11 -11 -13 -14 -14 -17 -17 -22 -25 -26 -27 -28 -29 -30 -21
-2 -18 -19 -19 -17 -16 -15 -14 -14 -14 -12 -10 -9 -7 -7 -7 -7 -7 -6 -7 -8 -8 -9 -9 -10 -10 -10 -10 -10 -11 -13 -13 -13 -14 -17 -18 -21 -24 -26 -27 -28 -30 -30